Flag for Cameroon Weather past 2 weeks in Douala, Cameroon

Now
82 °F

Broken clouds.


Feels Like: 88 °F
Forecast: 75 / 82 °F
Wind: No wind

Location: Douala Obs.

Current Time: Sep 30, 2014 at 2:34:27 PM

Latest Report: Sep 30, 2014 at 2:00 PM


Visibility: N/A

Pressure: 29.89 "Hg

Humidity: 74%

Dew point: 73 °F

Location of DoualaLocation

Historic Weather in Douala — Graph

°F

Douala temperature yesterday

Maximum temperature yesterday: 82 °F (at 12:00 PM)
Minimum temperature yesterday: 73 °F (at 3:00 PM)
Average temperature yesterday: 76 °F

Past Weeks' High & Low Weather Summary

 TemperatureHumidityPressure
High88 °F (Sep 23, 2:00 PM)100% (Sep 15, 11:00 PM)30.01 "Hg (Sep 15, 11:00 PM)
Low73 °F (Sep 17, 3:00 AM)62% (Sep 25, 2:00 PM)29.80 "Hg (Sep 23, 4:00 PM)
Average79 °F89%29.91 "Hg
* Reported Sep 15 1:00 PM — Sep 30 1:00 PM, Douala, Weather by CustomWeather, © 2014

Note: Actual official high and low records may vary slightly from our data, if they occured in-between our weather recording intervals... More about our weather records

Advertising

Douala weather history for previous 24 hours

 ConditionsComfort  
Time TempWeatherWind HumidityBarometerVisibility
1:00 PM
Sep 30
81 °FThunderstorms. More clouds than sun.5 mph79%29.92 "HgN/A
12:00 PM77 °FThunderstorms. More clouds than sun.No wind94%29.98 "HgN/A
11:00 AM79 °FThunderstorms. More clouds than sun.5 mph89%29.98 "HgN/A
10:00 AM79 °FMore clouds than sun.No wind84%29.95 "HgN/A
9:00 AM77 °FBroken clouds.7 mph94%29.95 "HgN/A
8:00 AM75 °FBroken clouds.7 mph94%29.92 "HgN/A
7:00 AM73 °FFog.No wind100%29.89 "Hg2 mi
6:00 AM73 °FThunderstorms. Passing clouds.No wind100%29.89 "Hg5 mi
5:00 AM73 °FThunderstorms. Partly cloudy.No wind100%29.86 "Hg5 mi
4:00 AM73 °FThunderstorms. Partly cloudy.No wind100%29.86 "Hg5 mi
3:00 AM73 °FThunderstorms. Partly cloudy.No wind100%29.86 "Hg5 mi
2:00 AM73 °FPartly cloudy.No wind100%29.86 "Hg4 mi
1:00 AM73 °FPartly cloudy.No wind100%29.89 "Hg4 mi
12:00 AM73 °FThunderstorms. Partly cloudy.No wind100%29.89 "Hg5 mi
11:00 PM
Sep 29
73 °FThunderstorms. Partly cloudy.No wind100%29.95 "Hg5 mi
10:00 PM73 °FThunderstorms. Partly cloudy.No wind100%29.92 "Hg3 mi
9:00 PM73 °FThunderstorms. Partly cloudy.No wind100%29.95 "Hg3 mi
8:00 PM75 °FThunderstorms. Partly cloudy.No wind94%29.92 "Hg3 mi
7:00 PM75 °FPartly cloudy.No wind100%29.89 "HgN/A
6:00 PM75 °FDrizzle. Broken clouds.No wind100%29.86 "HgN/A
5:00 PM75 °FThunderstorms. More clouds than sun.9 mph94%29.83 "Hg5 mi
4:00 PM73 °FThunderstorms. More clouds than sun.9 mph94%29.89 "Hg4 mi
3:00 PM73 °FThunderstorms. More clouds than sun.9 mph94%29.89 "Hg1 mi
2:00 PM77 °FThunderstorms. Cloudy.12 mph94%29.89 "Hg4 mi
Weather by CustomWeather, © 2014

See weather overviewHow to use our weather pages